Stations météo

réclame
Mon MeteoGroup
Florennes, Belgique (6456): Température de l'air & dewpoint: 19.02.2018 22:00:00 - 25.02.2018 22:00:00 (CET)Florennes, Belgique (6456): Vitesse du vent & gusts: 19.02.2018 22:00:00 - 25.02.2018 22:00:00 (CET)Florennes, Belgique (6456): Direction du vent: 19.02.2018 22:00:00 - 25.02.2018 22:00:00 (CET)Florennes, Belgique (6456): reduced air pressure: 19.02.2018 22:00:00 - 25.02.2018 22:00:00 (CET)Florennes, Belgique (6456): visibility: 19.02.2018 22:00:00 - 25.02.2018 22:00:00 (CET)
Date & Time tt [°C] td [°C] ff [km/h] ff [knt] fx [km/h] fx [knt] dd ppp [hPa] vv [km]
25.02.2018 22:00:00 -4,6 -14,2 18 10 - - NE 1027,0 20
25.02.2018 21:00:00 -4,1 -14,7 22 12 32 18 NE 1027,0 20
25.02.2018 20:00:00 -3,6 -14,5 22 12 36 19 NE 1027,0 20
25.02.2018 19:00:00 -3,0 -14,4 25 14 - - NNE 1027,0 20
25.02.2018 18:00:00 -2,2 -15,7 22 12 36 19 NNE 1026,4 20
25.02.2018 17:00:00 -1,0 -15,2 22 12 32 18 NNE 1025,9 20
25.02.2018 16:00:00 -0,4 -16,7 25 14 - - NNE 1025,9 20
25.02.2018 15:00:00 0,1 -16,6 22 12 32 18 NE 1025,7 20
25.02.2018 14:00:00 0,2 -18,6 22 12 36 19 ENE 1026,0 20
25.02.2018 13:00:00 -0,5 -17,8 22 12 - - ENE 1026,5 19
25.02.2018 12:00:00 -1,7 -18,5 25 14 40 21 ENE 1027,0 20
25.02.2018 11:00:00 -2,7 -16,3 25 14 40 21 ENE 1027,2 20
25.02.2018 10:00:00 -4,4 -14,8 22 12 - - ENE 1027,2 20
25.02.2018 09:00:00 -5,7 -13,1 22 12 32 18 ENE 1026,9 20
25.02.2018 08:00:00 -6,3 -12,7 22 12 29 16 NE 1026,7 20
25.02.2018 07:00:00 -6,0 -12,8 22 12 - - NE 1026,0 20
25.02.2018 06:00:00 -5,7 -12,7 18 10 29 16 ENE 1025,5 20
25.02.2018 05:00:00 -5,2 -12,6 18 10 29 16 ENE 1025,0 20
25.02.2018 04:00:00 -4,8 -12,3 18 10 - - ENE 1025,0 20
25.02.2018 03:00:00 -4,4 -12,0 18 10 29 16 ENE 1024,7 20
25.02.2018 02:00:00 -3,9 -11,6 18 10 29 16 ENE 1024,5 20
25.02.2018 01:00:00 -3,5 -11,1 22 12 - - ENE 1024,7 20
25.02.2018 00:00:00 -3,1 -10,9 22 12 29 16 ENE 1024,4 20
24.02.2018 23:00:00 -2,6 -10,8 22 12 32 18 ENE 1024,0 20
24.02.2018 22:00:00 -2,0 -10,5 25 14 - - ENE 1023,3 20
24.02.2018 21:00:00 -1,4 -9,2 29 16 40 21 ENE 1022,8 20
24.02.2018 20:00:00 -0,1 -8,4 25 14 47 25 ENE 1022,2 20
24.02.2018 19:00:00 1,0 -9,0 29 16 - - NE 1021,6 20
24.02.2018 18:00:00 2,3 -9,9 29 16 47 25 NE 1020,8 20
24.02.2018 17:00:00 4,4 -10,9 29 16 50 27 ENE 1020,0 20
24.02.2018 16:00:00 5,4 -13,9 32 18 - - E 1019,7 20
24.02.2018 15:00:00 4,7 -14,7 32 18 47 25 E 1019,7 20
24.02.2018 14:00:00 4,4 -14,2 29 16 50 27 ENE 1019,7 20
24.02.2018 13:00:00 3,8 -17,3 40 21 - - E 1020,0 20
24.02.2018 12:00:00 2,3 -16,5 36 19 54 29 E 1020,5 20
24.02.2018 11:00:00 -0,9 -12,8 22 12 32 18 ENE 1020,7 19
24.02.2018 10:00:00 -3,6 -12,0 22 12 - - ENE 1021,1 18
24.02.2018 09:00:00 -5,1 -11,1 22 12 29 16 NE 1021,2 13
24.02.2018 08:00:00 -5,9 -11,0 18 10 25 14 ENE 1021,0 11
24.02.2018 07:00:00 -5,5 -11,3 18 10 - - ENE 1020,2 13
24.02.2018 06:00:00 -5,3 -11,5 18 10 25 14 NE 1020,1 15
24.02.2018 05:00:00 -4,9 -11,9 14 8 25 14 NE 1019,7 18
24.02.2018 04:00:00 -4,6 -11,7 18 10 - - NE 1019,7 20
24.02.2018 03:00:00 -4,0 -11,4 14 8 18 10 ENE 1019,6 20
24.02.2018 02:00:00 -4,1 -11,6 14 8 22 12 ENE 1019,7 20
24.02.2018 01:00:00 -3,5 -11,6 14 8 - - NE 1019,7 20
24.02.2018 00:00:00 -2,4 -12,8 11 6 25 14 E 1019,2 20
23.02.2018 23:00:00 -2,5 -11,0 22 12 29 16 ENE 1019,2 20
23.02.2018 22:00:00 -2,1 -10,8 18 10 - - NE 1019,1 20
23.02.2018 21:00:00 -1,7 -10,7 18 10 29 16 ENE 1019,3 20
23.02.2018 20:00:00 -0,8 -11,0 22 12 36 19 NE 1019,1 20
23.02.2018 19:00:00 -0,3 -11,4 25 14 - - NE 1018,8 20
23.02.2018 18:00:00 -0,2 -10,8 25 14 36 19 NE 1018,5 20
23.02.2018 17:00:00 0,8 -10,8 22 12 36 19 NE 1018,2 25
23.02.2018 16:00:00 1,0 -10,3 29 16 - - NE 1018,2 25
23.02.2018 15:00:00 1,2 -10,3 25 14 36 19 NE 1018,5 25
23.02.2018 14:00:00 0,7 -10,6 22 12 36 19 NE 1019,2 25
23.02.2018 13:00:00 0,1 -10,3 22 12 - - NE 1019,7 25
23.02.2018 12:00:00 -1,1 -9,8 25 14 36 19 NE 1020,2 25
23.02.2018 11:00:00 -1,7 -10,0 25 14 40 21 ENE 1020,3 25
23.02.2018 10:00:00 -2,7 -9,9 29 16 - - ENE 1020,6 25
23.02.2018 09:00:00 -3,7 -9,0 25 14 32 18 NE 1020,8 25
23.02.2018 08:00:00 -4,5 -9,0 22 12 29 16 NE 1021,1 25
23.02.2018 07:00:00 -4,5 -8,8 18 10 - - NE 1020,8 25
23.02.2018 06:00:00 -4,4 -8,5 18 10 29 16 NE 1020,8 25
23.02.2018 05:00:00 -4,3 -8,5 18 10 25 14 NE 1020,8 16
23.02.2018 04:00:00 -4,1 -8,7 11 6 - - NE 1020,7 19
23.02.2018 03:00:00 -3,8 -8,6 14 8 25 14 NE 1020,7 19
23.02.2018 02:00:00 -3,1 -8,6 18 10 25 14 ENE 1021,1 19
23.02.2018 01:00:00 -2,9 -8,3 14 8 - - NE 1021,3 20
23.02.2018 00:00:00 -2,5 -7,1 18 10 29 16 ENE 1021,2 16
22.02.2018 23:00:00 -1,9 -7,0 18 10 36 19 NE 1021,3 16
22.02.2018 22:00:00 -1,2 -7,0 25 14 - - NE 1021,1 19
22.02.2018 21:00:00 -0,9 -6,5 25 14 40 21 NE 1021,0 20
22.02.2018 20:00:00 -0,6 -6,7 22 12 32 18 NE 1021,1 20
22.02.2018 19:00:00 -0,3 -6,9 22 12 - - NE 1020,7 19
22.02.2018 18:00:00 0,3 -6,9 18 10 36 19 NNE 1020,2 20
22.02.2018 17:00:00 1,2 -6,7 25 14 40 21 NNE 1020,2 15
22.02.2018 16:00:00 1,9 -6,6 25 14 - - NE 1020,2 20
22.02.2018 15:00:00 2,4 -8,3 25 14 47 25 ENE 1020,5 20
22.02.2018 14:00:00 2,5 -8,3 29 16 43 23 NE 1020,8 20
22.02.2018 13:00:00 2,2 -8,2 25 14 - - ENE 1021,3 15
22.02.2018 12:00:00 1,0 -6,6 22 12 32 18 ENE 1021,8 12
22.02.2018 11:00:00 -0,6 -6,7 22 12 32 18 ENE 1022,2 10
22.02.2018 10:00:00 -2,2 -6,2 22 12 - - NE 1022,7 7
22.02.2018 09:00:00 -3,3 -5,9 18 10 29 16 NE 1022,8 6
22.02.2018 08:00:00 -4,0 -6,2 18 10 25 14 NE 1022,7 4,0
22.02.2018 07:00:00 -4,1 -6,5 18 10 - - NE 1022,2 5
22.02.2018 06:00:00 -3,8 -6,2 18 10 25 14 NE 1022,2 8
22.02.2018 05:00:00 -3,6 -5,9 18 10 25 14 NE 1021,8 4,9
22.02.2018 04:00:00 -3,4 -5,5 18 10 - - NE 1022,2 4,5
22.02.2018 03:00:00 -3,2 -5,4 14 8 25 14 NE 1022,7 4,6
22.02.2018 02:00:00 -2,8 -5,3 18 10 29 16 NE 1022,7 5
22.02.2018 01:00:00 -2,4 -5,3 18 10 - - NE 1023,2 6
22.02.2018 00:00:00 -2,1 -5,5 18 10 25 14 NNE 1023,5 7
21.02.2018 23:00:00 -1,7 -5,4 11 6 22 12 NNE 1023,7 8
21.02.2018 22:00:00 -1,3 -5,3 14 8 - - NNE 1023,8 8
21.02.2018 21:00:00 -1,1 -5,6 11 6 22 12 NNE 1023,8 9
21.02.2018 20:00:00 -0,5 -5,3 11 6 22 12 NNE 1023,7 8
21.02.2018 19:00:00 -0,2 -5,1 14 8 - - NNE 1023,7 8
21.02.2018 18:00:00 0,8 -5,2 11 6 29 16 NNE 1023,2 9
21.02.2018 17:00:00 1,7 -4,4 18 10 32 18 NNE 1023,2 8
21.02.2018 16:00:00 2,0 -4,1 22 12 - - NNE 1023,4 8
21.02.2018 15:00:00 1,5 -3,2 18 10 29 16 N 1023,7 8
21.02.2018 14:00:00 1,8 -3,4 18 10 32 18 NNE 1024,4 8
21.02.2018 13:00:00 1,2 -3,7 18 10 - - NNE 1024,7 6
21.02.2018 12:00:00 0,4 -3,8 18 10 22 12 NNE 1025,0 6
21.02.2018 11:00:00 -0,4 -4,3 14 8 22 12 NE 1025,2 6
21.02.2018 10:00:00 -1,6 -4,0 14 8 - - ENE 1025,0 4,5
21.02.2018 09:00:00 -3,0 -5,0 13 7 - - NE - 1,8
21.02.2018 08:00:00 -3,8 -5,1 14 8 18 10 N 1024,7 1,8
21.02.2018 07:00:00 -3,9 -5,5 11 6 - - NNE 1024,4 2,5
21.02.2018 06:00:00 -3,3 -5,1 11 6 22 12 NE 1024,0 4,0
21.02.2018 05:00:00 -2,8 -4,8 11 6 22 12 NNE 1024,0 3,0
21.02.2018 04:00:00 -2,4 -4,3 14 8 - - NNE 1023,7 3,2
21.02.2018 03:00:00 -2,2 -4,4 11 6 22 12 NE 1023,2 3,5
21.02.2018 02:00:00 -2,0 -4,3 14 8 25 14 NNE 1023,3 4,0
21.02.2018 01:00:00 -1,1 -3,6 18 10 - - NNE 1023,0 4,8
21.02.2018 00:00:00 -1,1 -3,6 14 8 18 10 N 1022,3 4,8
20.02.2018 23:00:00 -0,8 -3,3 14 8 18 10 NNE 1021,7 5
20.02.2018 22:00:00 -0,2 -3,1 7 4 - - NE 1021,2 4,9
20.02.2018 21:00:00 0,1 -3,0 11 6 18 10 NNE 1020,7 8
20.02.2018 20:00:00 0,5 -2,8 11 6 14 8 NNE 1020,2 8
20.02.2018 19:00:00 1,3 -2,3 7 4 - - NNE 1019,6 8
20.02.2018 18:00:00 2,1 -2,4 11 6 22 12 NNE 1019,2 9
20.02.2018 17:00:00 2,7 -2,7 14 8 18 10 N 1018,3 12
20.02.2018 16:00:00 3,5 -2,7 11 6 - - NNE 1017,8 12
20.02.2018 15:00:00 3,6 -2,4 7 4 14 8 N 1018,2 12
20.02.2018 14:00:00 3,5 -2,2 7 4 11 6 N 1018,6 8
20.02.2018 13:00:00 3,4 -2,7 4 2 - - N 1018,5 7
20.02.2018 12:00:00 1,9 -1,1 4 2 7 4 N 1018,7 7
20.02.2018 11:00:00 1,5 -1,1 4 2 7 4 N 1019,0 6
20.02.2018 10:00:00 0,1 -1,5 4 2 - - N 1019,0 5
20.02.2018 09:00:00 -1,0 -1,8 7 4 7 4 WNW 1019,0 4,0
20.02.2018 08:00:00 -1,2 -2,3 4 2 7 4 N 1018,3 4,0
20.02.2018 07:00:00 -1,6 -2,5 4 2 - - N 1018,2 4,0
20.02.2018 06:00:00 -1,2 -2,1 4 2 7 4 N 1018,0 4,0
20.02.2018 05:00:00 -1,4 -2,1 4 2 4 2 N 1018,2 2,8
20.02.2018 04:00:00 -1,6 -2,3 4 2 - - N 1018,0 0,4
20.02.2018 03:00:00 -1,3 -2,3 4 2 7 4 N 1017,7 2,3
20.02.2018 02:00:00 -0,4 -1,4 7 4 7 4 E 1017,6 4,3
20.02.2018 01:00:00 -0,2 -1,2 4 2 - - N 1017,8 3,9
20.02.2018 00:00:00 -0,1 -0,9 2 1 7 4 - 1017,7 5
19.02.2018 23:00:00 0,0 -0,8 4 2 7 4 N 1017,7 3,7
19.02.2018 22:00:00 0,0 -0,9 4 2 - - N 1017,8 5

tt = Température de l'air
td = dewpoint
ff = Vitesse du vent
fx = gusts
dd = Direction du vent
ppp = reduced air pressure
vv = visibility

stations d'obs. à proximité